COSMOS 1275 DEB, 12692

Orbit data source: Space-Track

COSMOS 1275 DEB, 12692 is space debris in LEO originally from a launch on Thu, 04 Jun 1981 UTC launched from the Plesetsk Missile And Space Complex (PKMTR). Debris objects in space refer to the collection of defunct objects orbiting the Earth. Examples of debris include non-operational satellites, rocket bodies, and fragments generated from explosions, collisions, or faulty payload assembly.

Loading next visibility...
Identifier
12692, 1981-053AL
Orbit
LEO
Country
Flag of CISCIS
Related business
Manufacturer
Unknown
Mission
Spacecraft
Bus & Motor
Unknown
Mass
Unknown
Launch date (UTC)
1981-06-04 (44 years ago)
Launch vehicle
Unknown
Launch site
Plesetsk Missile And Space Complex (PKMTR)
Object type
Payload
Rocket body
Debris
Shape & HBR
Unknown shape, 0.4 m
Radar Cross Section
Medium (>0.1 m² and <1 m²)

Expand to show TLE details & history
Last TLE update: 15 hours ago

TLE from 15 hours ago
0 COSMOS 1275 DEB
1 12692U 81053AL  25297.21135212  .00003513  00000-0  12508-2 0  9999
2 12692  82.8981 227.6066 0069067  14.3286 345.9838 14.32753973284210
Epoch: 2025-10-24T05:04Z
TLE epoch observation values (Epoch: 2025-10-24T05:04:20.823Z)
Latitude
-0.00009°
Longitude
118.66032°
Altitude
737.545 km
Speed
7.511 km/s
True Right ascension
15h 10m 25s
True Declination
0° 00' 00"
Sunlit
Object was in daylight at epoch
Visualization orbit readout
Latitude
Unknown
Longitude
Unknown
Altitude
Unknown
Speed
Unknown
Apparent Right ascension
Unknown
Apparent Declination
Unknown
Sunlit
N/A
Visualization observer readout
Local Sidereal Time
15:35:26
Azimuth
Unknown
Elevation
Unknown
Doppler factor
Unknown
Orbital elements
Apogee altitude
829.047 km
Perigee altitude
730.175 km
Semi-major axis
7,157.748 km
Eccentricity
0.00691
Inclination
82.8981°
RAAN
227.6066°
Arg. of periapsis
14.3286°
True anomaly
345.7905°
Mean anomaly
345.9838°
Eccentric anomaly
345.88731°
Mean motion
3.58409 °/min
Orbital period
100.44 mins
BSTAR
0.0012508
Loading maneuver chart data...
Computing Atmospheric mass density...

Documentation

Showing up to 5 results
|